Voltar ao catálogo

RADUGA 27

AtivoMilitarGEO
NORAD 21132·PAYLOAD·🇷🇺 Russia

Lançado Feb 28, 1991 de Baikonur Cosmodrome

Loading…

TLE

AtualizadoSource: Space-Track

Época: Sep 14, 2026, 14:23 UTC

1 21132U 91014A   26257.59997444 -.00000370  00000-0  00000-0 0  9998
2 21132  13.2560 336.1805 0001448 274.1371  84.5132  1.00305028130204

Acompanhe RADUGA 27 em tempo real com AllMySat

Download on the App Store